Regional Weather Roundup
Issued by NWS

Home | Current Version | Previous Version | Graphics & Text | Print | Product List | Glossary On
Versions: 1 2 3 4 5 6 7 8 9 10 11 12 13 14 15 16 17 18 19 20 21 22 23 24 25 26 27 28 29 30 31 32 33 34 35 36 37 38 39 40 41 42 43 44 45 46 47 48 49 50
000
ASUS43 KLOT 251810
RWRIL

ILLINOIS REGIONAL WEATHER ROUNDUP
NATIONAL WEATHER SERVICE CHICAGO/ROMEOVILLE IL
100 PM CDT FRI JUL 25 2014

NOTE: "FAIR" INDICATES FEW OR NO CLOUDS BELOW 12,000 FEET WITH NO
SIGNIFICANT WEATHER AND/OR OBSTRUCTIONS TO VISIBILITY.

* THESE STATIONS ARE NOT UNDER NWS QUALITY CONTROL. THEY ALSO MAY NOT
  REPORT WEATHER SUCH AS PRECIPITATION OR FOG.

ILZ001-002-007-009-015-016-024-251900-
NORTHWEST ILLINOIS

CITY           SKY/WX    TMP DP  RH WIND       PRES   REMARKS
MOLINE         TSTM      64  61  88 S13G29    29.86F
6HR MIN TEMP:  60; 6HR MAX TEMP:  66; 6HR PCP:  0.30;

STERLING*      CLOUDY    66  61  82 S9        29.90R
SAVANNA*       CLOUDY    69  62  77 S13       29.90R
$$

ILZ003-004-008-010-011-017-018-251900-
NORTH CENTRAL ILLINOIS

CITY           SKY/WX    TMP DP  RH WIND       PRES   REMARKS
ROCKFORD       CLOUDY    69  58  67 W12G26    29.95F
6HR MIN TEMP:  59; 6HR MAX TEMP:  70; 6HR PCP:  0.02;

FREEPORT*      CLOUDY    64  59  85 SW13      29.98R
ROCHELLE*      CLOUDY    66  59  77 S16G32    29.85F
DE KALB*       CLOUDY    67  59  75 S22       29.89F
PERU*          CLOUDY    66  61  84 S14       29.92F
$$

ILZ005-006-012>014-019>023-251900-
NORTHEAST ILLINOIS

CITY           SKY/WX    TMP DP  RH WIND       PRES   REMARKS
CHICAGO-OHARE  CLOUDY    73  55  53 SW16      29.97F
6HR MIN TEMP:  62; 6HR MAX TEMP:  73; 6HR PCP: TRACE;

CHICAGO-MIDWAY CLOUDY    73  58  59 SW15      29.99F
6HR MIN TEMP:  63; 6HR MAX TEMP:  74; 6HR PCP: TRACE;

AURORA         CLOUDY    71  59  65 S14       29.95F
6HR MIN TEMP:  55; 6HR MAX TEMP:  71; 6HR PCP: TRACE;

LANSING*       CLOUDY    71  57  61 SW15      30.01S
JOLIET*        CLOUDY    72  57  60 SW12G17   29.99F
WAUKEGAN       CLOUDY    72  56  57 S14G22    29.95F
6HR MIN TEMP:  62; 6HR MAX TEMP:  75;

DUPAGE AIRPORT CLOUDY    72  59  63 S16       29.95F
6HR MIN TEMP:  58; 6HR MAX TEMP:  72; 6HR PCP: TRACE;

KANKAKEE*      CLOUDY    69  59  71 SW10G17   30.03R
WHEELING       CLOUDY    74  56  53 SW17G24   29.97F
6HR MIN TEMP:  63; 6HR MAX TEMP:  75; 6HR PCP: TRACE;

MORRIS*        CLOUDY    71  60  70 SW12G18   29.96F
ROMEOVILLE*    CLOUDY    71  57  60 SW13G21   29.98F
NORTHERLY ISL    N/A     72  54  53 S15         N/A
$$

LMZ740>746-251900-
SOUTHERN LAKE MICHIGAN

STATION/POSITION SKY/WX   TEMP    WIND        PRES    VSBY  WAVE
                          AIR SEA DIR/SP/G                  HT/PER
                          (F)     (DEG/KT/KT) (MB)    (MI)  (FT/S)
SOUTHERN BUOY              63 61  180/ 12/ 14 1015.1F         1/ 3
WAUKEGAN HARBOR            71     210/ 19/ 23   N/A
HARRISON CRIB              70     200/ 23/ 27   N/A
BURNHAM HARBOR             72     190/ 13/ 14   N/A
CALUMET HARBOR             71     190/ 11/ 15 1014.6R
BURNS HARBOR               73     190/ 18/ 21 1015.9F
MICHIGAN CITY              72     180/ 13/ 18   N/A
MICHIGAN CITY 6N           71 68  200/ 10/ 14   N/A           1/ 3
ST. JOSEPH                 67 64  200/  6/ 10   N/A           1/ 3
$$

ILZ025>027-034>036-040-047-049-050-058-095>099-251900-
WEST-CENTRAL ILLINOIS

CITY           SKY/WX    TMP DP  RH WIND       PRES   REMARKS
QUINCY         TSTM      62  60  93 S9        30.02F FOG
GALESBURG*     CLOUDY    64  62  94 S14G20    29.94F
MACOMB*        LGT RAIN  61  61 100 S15G24    29.98F
JACKSONVILLE*  RAIN      64  63  95 NW5       30.12R
PITTSFIELD*    TSTM      63  60  91 N10G22    30.12R
$$

ILZ028>032-037-038-041>044-048-051>054-059>061-251900-
CENTRAL ILLINOIS

CITY           SKY/WX    TMP DP  RH WIND       PRES   REMARKS
PONTIAC        LGT RAIN  68  63  83 SW8       30.01F
DECATUR        LGT RAIN  65  62  90 S3        30.09R
PEORIA         CLOUDY    65  60  84 S8        29.98F
6HR MIN TEMP:  63; 6HR MAX TEMP:  65; 6HR PCP:  0.30;

LACON*         CLOUDY    63  60  90 S13       29.92F
LINCOLN*       HVY RAIN  64  61  93 S8        30.05R
SPRINGFIELD    HVY RAIN  64  62  93 CALM      30.11R FOG
6HR MIN TEMP:  61; 6HR MAX TEMP:  65; 6HR PCP:  0.28;

TAYLORVILLE    LGT RAIN  64  63  94 CALM      30.08R
$$

ILZ033-039-045-046-055>057-062-063-251900-
EAST-CENTRAL ILLINOIS

CITY           SKY/WX    TMP DP  RH WIND       PRES   REMARKS
CHAMPAIGN      LGT RAIN  67  61  81 SW8       30.09R
DANVILLE*      CLOUDY    67  58  72 S7        30.05R
RANTOUL*       LGT RAIN  69  60  72 SW8       30.08R
MATTOON        LGT RAIN  67  60  78 VRB3      30.09R
PARIS*         CLOUDY    70  60  70 S6        30.09R
$$

ILZ079-100>102-251900-
SOUTHWEST ILLINOIS

CITY           SKY/WX    TMP DP  RH WIND       PRES   REMARKS
ALTON          CLOUDY    68  66  94 S7        30.04F
CAHOKIA*       CLOUDY    72  60  66 VRB5      30.04F
SPARTA*        CLOUDY    72  59  64 S6        30.06F
$$

ILZ064>066-069>071-074>076-080>082-084>086-088>090-092>094-251900-
SOUTH-CENTRAL ILLINOIS

CITY           SKY/WX    TMP DP  RH WIND       PRES   REMARKS
CARBONDALE     PTSUNNY   77  59  53 SW5       30.06R
6HR MIN TEMP:  59; 6HR MAX TEMP:  80;

CAIRO*         PTSUNNY   81  61  50 W3        30.07R HX  82
EFFINGHAM*     CLOUDY    71  58  63 CALM      30.10R
MARION         PTSUNNY   79  57  47 SW7       30.07S HX  80
MT. VERNON     CLOUDY    77  61  57 SW8       30.07S
CENTRALIA*     CLOUDY    77  60  54 SE3       30.07R
SALEM*         CLOUDY    76  61  58 S5        30.08R
METROPOLIS*    PTSUNNY   80  53  39 SW3       30.06R HX  80
$$

ILZ067-068-072-073-078-083-087-091-251900-
SOUTHEAST ILLINOIS

CITY           SKY/WX    TMP DP  RH WIND       PRES   REMARKS
LAWRENCEVILLE  CLOUDY    75  57  53 S5        30.08R
FLORA*         CLOUDY    74  59  60 SW6       30.07S
FAIRFIELD*     CLOUDY    77  63  61 S6        30.07R
HARRISBURG*    PTSUNNY   77  57  49 CALM      30.09R
ROBINSON*      CLOUDY    74  60  60 SW5       30.09R
CARMI*         PTSUNNY   79  63  57 S3        30.07R HX  80
$$

ABBREVIATIONS USED IN REMARKS
   TC - TEMPERATURE IN CELSIUS
  WCI - WIND CHILL INDEX
   HX - HEAT INDEX
  VSB - VISIBILITY
$$




USA.gov is the U.S. government's official web portal to all federal, state and local government web resources and services.